Location: ??????????
(54.7560°N, 39.1389°E)
Time: 04:58:42
(UTC+00:00)

MetOp-A - Pass Details

Date: 19 May 2025
Orbit: 521 x 774 km, 98.3° (Epoch: 19 June)

Event Time Altitude Azimuth Distance (km) Brightness Sun altitude
Exits shadow 20:33:10 21° 189° (S) 1,697 5.2 -14.6°
Maximum altitude 20:36:32 54° 260° (W) 945 4.4 -14.7°
Drops below altitude 10° 20:41:37 10° 337° (NNW) 2,333 7.8 -14.8°
Sets 20:44:00 0° 342° (NNW) 3,254 9.1 -14.9°
